2024/04/27 00:00:00, 0.0,13.7
2024/04/27 00:10:00, 0.0,13.4
2024/04/27 00:20:00, 0.0,13.1
2024/04/27 00:30:00, 0.0,13.2
2024/04/27 00:40:00, 0.0,13.1
2024/04/27 00:50:00, 0.0,13.1
2024/04/27 01:00:00, 0.0,13.2
2024/04/27 01:10:00, 0.0,13.2
2024/04/27 01:20:00, 0.0,13.1
2024/04/27 01:30:00, 0.0,13.2
2024/04/27 01:40:00, 0.0,13.1
2024/04/27 01:50:00, 0.0,13.1
2024/04/27 02:00:00, 0.0,13.0
2024/04/27 02:10:00, 0.0,13.0
2024/04/27 02:20:00, 0.0,12.9
2024/04/27 02:30:00, 0.0,12.8
2024/04/27 02:40:00, 0.0,13.0
2024/04/27 02:50:00, 0.0,12.8
2024/04/27 03:00:00, 0.0,12.7
2024/04/27 03:10:00, 0.0,12.9
2024/04/27 03:20:00, 0.0,13.2
2024/04/27 03:30:00, 0.0,12.6
2024/04/27 03:40:00, 0.0,12.8
2024/04/27 03:50:00, 0.0,12.7
2024/04/27 04:00:00, 0.0,12.7
2024/04/27 04:10:00, 0.0,12.7
2024/04/27 04:20:00, 0.0,12.5
2024/04/27 04:30:00, 0.0,12.4
2024/04/27 04:40:00, 0.0,12.2
2024/04/27 04:50:00, 0.0,12.4
2024/04/27 05:00:00, 0.0,12.4
2024/04/27 05:10:00, 0.0,12.4
2024/04/27 05:20:00, 0.0,12.1
2024/04/27 05:30:00, 0.0,12.4
2024/04/27 05:40:00, 0.0,12.3
2024/04/27 05:50:00, 0.0,12.5
2024/04/27 06:00:00, 0.0,13.0
2024/04/27 06:10:00, 0.0,13.0
2024/04/27 06:20:00, 0.0,13.7
2024/04/27 06:30:00, 0.0,14.1
2024/04/27 06:40:00, 0.0,14.8
2024/04/27 06:50:00, 0.0,14.8
2024/04/27 07:00:00, 0.0,15.1
2024/04/27 07:10:00, 0.0,16.0
2024/04/27 07:20:00, 0.0,16.7
2024/04/27 07:30:00, 0.0,16.8
2024/04/27 07:40:00, 0.0,17.0
2024/04/27 07:50:00, 0.0,17.5
2024/04/27 08:00:00, 0.0,18.3
2024/04/27 08:10:00, 0.0,18.8
2024/04/27 08:20:00, 0.0,19.1
2024/04/27 08:30:00, 0.0,19.5
2024/04/27 08:40:00, 0.0,19.5
2024/04/27 08:50:00, 0.0,19.6
2024/04/27 09:00:00, 0.0,19.8
2024/04/27 09:10:00, 0.0,19.6
2024/04/27 09:20:00, 0.0,19.5
2024/04/27 09:30:00, 0.0,19.9
2024/04/27 09:40:00, 0.0,19.6
